ASA585 KLAX-KSEA

Flight info

Callsign ASA585
Flight time N/A
Altitude 38000
Route LADYJ4 CSTRO SHIMR LKV HAWKZ8
Aircraft B738/M-SDE2E3FGHIRWXY/LB1

Departure

Time 2026-04-24 23:22
Airport Los Angeles International Airport (KLAX)

Arrival

Time N/A
Airport Seattle–Tacoma International Airport (KSEA)
Time Latitude Longitude Altitude Speed Heading
2026-04-24 22:55 33.94144 -118.40273 92 ft 0 kts 86°
2026-04-24 23:09 33.94144 -118.40281 92 ft 4 kts 86°
2026-04-24 23:10 33.94142 -118.40306 92 ft 4 kts 90°
2026-04-24 23:10 33.94149 -118.40329 92 ft 4 kts 161°
2026-04-24 23:10 33.94148 -118.40331 92 ft 4 kts 173°
2026-04-24 23:10 33.94121 -118.40327 93 ft 4 kts 173°
2026-04-24 23:11 33.94094 -118.40323 93 ft 4 kts 173°
2026-04-24 23:11 33.94067 -118.40319 92 ft 4 kts 173°
2026-04-24 23:11 33.94040 -118.40315 93 ft 4 kts 173°
2026-04-24 23:11 33.94033 -118.40314 94 ft 0 kts 173°
2026-04-24 23:15 33.94027 -118.40313 94 ft 4 kts 172°
2026-04-24 23:15 33.93976 -118.40302 94 ft 9 kts 172°
2026-04-24 23:16 33.93912 -118.40293 94 ft 9 kts 173°
2026-04-24 23:16 33.93860 -118.40276 94 ft 5 kts 128°
2026-04-24 23:16 33.93855 -118.40233 95 ft 6 kts 83°
2026-04-24 23:16 33.93863 -118.40149 95 ft 14 kts 83°
2026-04-24 23:17 33.93875 -118.40030 95 ft 14 kts 82°
2026-04-24 23:17 33.93888 -118.39913 95 ft 14 kts 83°
2026-04-24 23:17 33.93898 -118.39802 95 ft 13 kts 83°
2026-04-24 23:17 33.93911 -118.39679 97 ft 17 kts 83°
2026-04-24 23:18 33.93927 -118.39525 95 ft 20 kts 82°
2026-04-24 23:18 33.93945 -118.39353 96 ft 21 kts 83°
2026-04-24 23:18 33.93962 -118.39181 95 ft 20 kts 83°
2026-04-24 23:18 33.93979 -118.39015 93 ft 20 kts 83°
2026-04-24 23:19 33.93995 -118.38854 93 ft 19 kts 83°
2026-04-24 23:19 33.94011 -118.38698 97 ft 18 kts 83°
2026-04-24 23:19 33.94027 -118.38548 97 ft 18 kts 83°
2026-04-24 23:19 33.94037 -118.38451 96 ft 17 kts 83°
2026-04-24 23:20 33.94051 -118.38309 95 ft 17 kts 83°
2026-04-24 23:20 33.94065 -118.38172 93 ft 16 kts 83°
2026-04-24 23:20 33.94077 -118.38058 92 ft 8 kts 83°
2026-04-24 23:20 33.94041 -118.37993 94 ft 8 kts 180°
2026-04-24 23:21 33.93999 -118.38008 93 ft 11 kts 216°
2026-04-24 23:21 33.93976 -118.38092 93 ft 12 kts 265°
2026-04-24 23:21 33.93961 -118.38246 97 ft 39 kts 263°
2026-04-24 23:21 33.93894 -118.38877 96 ft 113 kts 262°
2026-04-24 23:22 33.93754 -118.40039 267 ft 157 kts 263°
2026-04-24 23:22 33.93755 -118.41375 1098 ft 159 kts 270°
2026-04-24 23:22 33.93904 -118.42672 1961 ft 156 kts 275°
2026-04-24 23:22 33.94043 -118.44056 2482 ft 180 kts 270°
2026-04-24 23:23 33.94037 -118.45711 2757 ft 213 kts 265°
2026-04-24 23:23 33.94003 -118.47592 2998 ft 235 kts 271°
2026-04-24 23:23 33.94052 -118.49590 3491 ft 243 kts 270°
2026-04-24 23:23 33.94075 -118.51644 4037 ft 252 kts 268°
2026-04-24 23:24 33.93977 -118.53801 4576 ft 261 kts 264°
2026-04-24 23:24 33.93825 -118.55978 4949 ft 264 kts 264°
2026-04-24 23:24 33.93655 -118.58182 4976 ft 264 kts 263°
2026-04-24 23:24 33.93486 -118.60390 5232 ft 266 kts 265°
2026-04-24 23:25 33.93761 -118.62600 6022 ft 273 kts 293°
2026-04-24 23:25 33.94886 -118.64432 7007 ft 275 kts 316°
2026-04-24 23:25 33.96467 -118.65758 7673 ft 279 kts 325°
2026-04-24 23:25 33.98126 -118.66972 7965 ft 280 kts 328°
2026-04-24 23:26 33.99984 -118.67684 7976 ft 285 kts 354°
2026-04-24 23:26 34.01973 -118.67664 7980 ft 287 kts
2026-04-24 23:26 34.03963 -118.67503 7982 ft 287 kts
2026-04-24 23:26 34.05963 -118.67343 7990 ft 288 kts
2026-04-24 23:27 34.07970 -118.67183 7984 ft 290 kts
2026-04-24 23:27 34.09974 -118.66783 8319 ft 295 kts
2026-04-24 23:27 34.11953 -118.66279 9264 ft 294 kts
2026-04-24 23:27 34.13968 -118.65762 10070 ft 299 kts
2026-04-24 23:28 34.16055 -118.65243 10466 ft 318 kts
2026-04-24 23:28 34.18313 -118.64699 10662 ft 343 kts
2026-04-24 23:28 34.20722 -118.64127 11023 ft 359 kts
2026-04-24 23:28 34.23199 -118.63542 11634 ft 366 kts
2026-04-24 23:29 34.25725 -118.63416 12325 ft 364 kts 347°
2026-04-24 23:29 34.28203 -118.64011 13109 ft 365 kts 343°
2026-04-24 23:29 34.30710 -118.64638 13873 ft 370 kts 343°
2026-04-24 23:29 34.33251 -118.65253 14569 ft 374 kts 343°
2026-04-24 23:30 34.35811 -118.65852 15336 ft 376 kts 343°
2026-04-24 23:30 34.38400 -118.66446 16040 ft 381 kts 343°
2026-04-24 23:30 34.41017 -118.67043 16841 ft 382 kts 343°
2026-04-24 23:30 34.43643 -118.67632 17554 ft 387 kts 343°
2026-04-24 23:31 34.46321 -118.68175 18222 ft 393 kts 344°
2026-04-24 23:31 34.49029 -118.68694 18845 ft 395 kts 344°
2026-04-24 23:31 34.51759 -118.69212 19496 ft 398 kts 343°
2026-04-24 23:31 34.54506 -118.69737 20143 ft 401 kts 343°
2026-04-24 23:32 34.57270 -118.70270 20779 ft 403 kts 342°
2026-04-24 23:32 34.60009 -118.70803 21370 ft 406 kts 342°
2026-04-24 23:32 34.62802 -118.71348 22058 ft 407 kts 342°
2026-04-24 23:32 34.65604 -118.71896 22715 ft 408 kts 342°
2026-04-24 23:33 34.68416 -118.72448 23286 ft 410 kts 342°
2026-04-24 23:33 34.71240 -118.73033 23746 ft 411 kts 338°
2026-04-24 23:33 34.73839 -118.74259 24160 ft 394 kts 321°
2026-04-24 23:33 34.76197 -118.75962 24655 ft 396 kts 321°
2026-04-24 23:34 34.78592 -118.77654 25085 ft 400 kts 322°
2026-04-24 23:34 34.81020 -118.79346 25459 ft 404 kts 322°
2026-04-24 23:34 34.83479 -118.81045 25884 ft 407 kts 322°
2026-04-24 23:34 34.85952 -118.82745 26329 ft 409 kts 322°
2026-04-24 23:35 34.88435 -118.84451 26737 ft 412 kts 322°
2026-04-24 23:35 34.90940 -118.86173 27112 ft 415 kts 322°
2026-04-24 23:35 34.93457 -118.87904 27487 ft 417 kts 322°
2026-04-24 23:35 34.95996 -118.89650 27869 ft 420 kts 322°
2026-04-24 23:36 34.98551 -118.91410 28243 ft 422 kts 322°
2026-04-24 23:36 35.01116 -118.93178 28629 ft 425 kts 322°
2026-04-24 23:36 35.03662 -118.94935 28991 ft 427 kts 322°
2026-04-24 23:36 35.06293 -118.96752 29344 ft 430 kts 322°
2026-04-24 23:37 35.08869 -118.98532 29708 ft 431 kts 322°
2026-04-24 23:37 35.11482 -119.00337 30125 ft 431 kts 322°
2026-04-24 23:37 35.16686 -119.03935 30999 ft 428 kts 321°
2026-04-24 23:38 35.19277 -119.05730 31420 ft 428 kts 321°
2026-04-24 23:38 35.21858 -119.07520 31825 ft 426 kts 321°
2026-04-24 23:38 35.24431 -119.09307 32240 ft 425 kts 320°
2026-04-24 23:38 35.27006 -119.11096 32621 ft 425 kts 320°
2026-04-24 23:39 35.29568 -119.12878 32971 ft 425 kts 320°